Location: Colossi of Memnon
(25.7167°N, 32.6167°E)
Time: 06:10:10
(UTC+00:00)

USA 234 - Pass Details

Date: 05 March 2021
Orbit: 1102 x 1105 km, 123.0° (Epoch: 16 April)

Event Time Altitude Azimuth Distance (km) Brightness Sun altitude
Rises 01:33:32 0° 128° (SE) 3,908 6.6 -35.7°
Reaches altitude 10° 01:36:03 10° 125° (SE) 2,952 5.9 -35.1°
Maximum altitude 01:42:26 60° 47° (NE) 1,243 3.6 -33.7°
Enters shadow 01:43:34 53° 7° (N) 1,333 3.6 -33.5°
